[Date Prev][Date Next][Thread Prev][Thread Next] - [Date Index][Thread Index][Author Index]
MIR~RS-18~ISS 12-12 keps
- Subject: [sarex] MIR~RS-18~ISS 12-12 keps
- From: "Dr Dave Larsen [ PhD ]" <doc@xxxxxxxxxxx>
- Date: Sat, 12 Dec 1998 00:52:06 -0800
MIR
1 16609U 86017A 98346.14610627 .00030977 00000-0 22860-3 0 326
2 16609 51.6571 221.2903 0007796 76.3799 283.8087 15.72682601731980
SPUTNIK 41
1 25533U 98062C 98346.05855071 .00288450 00000-0 12800-2 0 355
2 25533 51.6711 220.6849 0006320 109.8675 250.3153 15.82999821 4848
ISS
1 25544U 98067A 98346.17247356 .00166670 00000-0 21336-2 0 1125
2 25544 51.5954 57.3772 0010221 245.4176 114.5704 15.58061856 3434
----
Via the sarex mailing list at AMSAT.ORG courtesy of AMSAT-NA.
To unsubscribe, send "unsubscribe sarex" to Majordomo@amsat.org
AMSAT Home